Weather History for KIPT - August, 2013

Change the Weather History Date:

Thursday, August 8, 2013

  Actual Average Record
Temperature  
Mean Temperature 75 °F 72 °F  
Max Temperature 85 °F 83 °F 102 °F (1918)
Min Temperature 64 °F 62 °F 46 °F (1948)
Degree Days  
Heating Degree Days 0 0  
Month to date heating degree days 0 0  
Since 1 June heating degree days 9 41  
Since 1 July heating degree days 0 4  
Cooling Degree Days 10 7  
Month to date cooling degree days 40 61  
Year to date cooling degree days 608 494  
Since 1 June cooling degree days 537 451  
Growing Degree Days 24 (Base 50)    
Moisture  
Dew Point 66 °F    
Average Humidity 77    
Maximum Humidity 93    
Minimum Humidity 61    
Precipitation  
Precipitation 0.01 in 0.13 in 1.91 in (2005)
Month to date precipitation 0.15 1.07  
Year to date precipitation 20.01 24.24  
Sea Level Pressure  
Sea Level Pressure 29.99 in    
Wind  
Wind Speed 6 mph (SE)    
Max Wind Speed 15 mph    
Max Gust Speed 22 mph    
Visibility 10 miles    
Events      
T = Trace of Precipitation, MM = Missing Value Source: NWS Daily Summary

Daily Weather History Graph

Daily Weather History Graph

Search for Another Location

Airport or City:

Trip Planner

Search our weather history database for the weather conditions in past years. The results will help you decide how hot, cold, wet, or windy it might be!

Date:

Astronomy

Aug. 08, 2013 Rise Set
Actual Time 6:10 AM EDT 8:15 PM EDT
Civil Twilight 5:39 AM EDT 8:45 PM EDT
Nautical Twilight 5:02 AM EDT 9:22 PM EDT
Astronomical Twilight 4:21 AM EDT 10:03 PM EDT
Moon 7:56 AM EDT (8/8) 8:51 PM EDT (8/8)
Length of Visible Light 15h 06m
Length of Day
14h 05m
Waxing Crescent, 3% of the Moon is Illuminated
Aug 8
Waxing Crescent
Aug 14
First Quarter
Aug 20
Full
Aug 28
Last Quarter
Sep 5
New

Hourly Weather History & Observations

Time (EDT) Temp. Heat Index Dew Point Humidity Pressure Visibility Wind Dir Wind Speed Gust Speed Precip Events Conditions
12:54 AM 66.0 °F - 64.0 °F 93% 30.01 in 10.0 mi Calm Calm - N/A   Partly Cloudy
1:54 AM 66.0 °F - 63.0 °F 90% 29.99 in 8.0 mi East 8.1 mph - N/A   Clear
2:54 AM 66.0 °F - 63.0 °F 90% 30.00 in 10.0 mi Calm Calm - N/A   Partly Cloudy
3:54 AM 64.9 °F - 62.1 °F 90% 29.98 in 10.0 mi Calm Calm - N/A   Clear
4:02 AM 64.4 °F - 62.6 °F 94% 29.99 in 10.0 mi Calm Calm - N/A   Partly Cloudy
4:52 AM 64.4 °F - 62.6 °F 94% 29.99 in 10.0 mi Calm Calm - N/A   Mostly Cloudy
4:54 AM 64.0 °F - 62.1 °F 93% 29.99 in 10.0 mi ESE 3.5 mph - N/A   Mostly Cloudy
5:04 AM 64.4 °F - 60.8 °F 88% 30.00 in 10.0 mi Calm Calm - N/A   Mostly Cloudy
5:11 AM 64.4 °F - 62.6 °F 94% 30.00 in 10.0 mi Calm Calm - N/A   Scattered Clouds
5:54 AM 64.9 °F - 63.0 °F 93% 30.00 in 10.0 mi ESE 4.6 mph - N/A   Mostly Cloudy
6:54 AM 64.9 °F - 63.0 °F 93% 30.00 in 10.0 mi East 4.6 mph - N/A   Mostly Cloudy
7:12 AM 66.2 °F - 62.6 °F 88% 30.01 in 10.0 mi Calm Calm - N/A   Mostly Cloudy
7:21 AM 66.2 °F - 62.6 °F 88% 30.02 in 10.0 mi Calm Calm - N/A   Mostly Cloudy
7:54 AM 66.9 °F - 63.0 °F 87% 30.03 in 10.0 mi East 4.6 mph - N/A   Overcast
8:11 AM 66.2 °F - 64.4 °F 94% 30.03 in 10.0 mi SE 6.9 mph - N/A   Overcast
8:45 AM 66.2 °F - 64.4 °F 94% 30.04 in 10.0 mi ESE 4.6 mph - N/A   Overcast
8:54 AM 66.9 °F - 64.0 °F 90% 30.02 in 10.0 mi ESE 4.6 mph - N/A   Overcast
9:32 AM 69.8 °F - 64.4 °F 83% 30.03 in 10.0 mi ESE 4.6 mph - N/A   Overcast
9:54 AM 70.0 °F - 64.9 °F 84% 30.01 in 10.0 mi East 6.9 mph - N/A   Overcast
10:49 AM 71.6 °F - 66.2 °F 83% 30.01 in 10.0 mi ESE 5.8 mph - N/A   Overcast
10:54 AM 73.0 °F - 66.0 °F 79% 30.00 in 10.0 mi East 4.6 mph - N/A   Overcast
11:54 AM 73.9 °F - 66.0 °F 76% 29.99 in 10.0 mi South 6.9 mph - N/A   Overcast
12:19 PM 75.2 °F - 66.2 °F 73% 30.00 in 10.0 mi SE 3.5 mph - N/A   Overcast
12:43 PM 75.2 °F - 66.2 °F 73% 30.01 in 10.0 mi South 8.1 mph - N/A   Overcast
12:54 PM 75.9 °F - 66.9 °F 74% 30.00 in 10.0 mi South 9.2 mph 16.1 mph N/A   Overcast
1:35 PM 78.8 °F - 68.0 °F 69% 30.01 in 10.0 mi SE 4.6 mph - N/A   Mostly Cloudy
1:54 PM 79.0 °F - 68.0 °F 69% 29.99 in 10.0 mi South 4.6 mph - N/A   Mostly Cloudy
2:54 PM 81.0 °F 84.1 °F 69.1 °F 67% 29.98 in 10.0 mi East 6.9 mph - N/A   Scattered Clouds
3:54 PM 82.9 °F 86.5 °F 69.1 °F 63% 29.95 in 10.0 mi Variable 5.8 mph - N/A   Mostly Cloudy
4:54 PM 84.0 °F 87.8 °F 69.1 °F 61% 29.94 in 10.0 mi ESE 11.5 mph - N/A   Mostly Cloudy
5:54 PM 82.9 °F 85.8 °F 68.0 °F 60% 29.93 in 10.0 mi SSW 5.8 mph - N/A   Partly Cloudy
6:54 PM 82.0 °F 85.5 °F 69.1 °F 65% 29.93 in 10.0 mi Variable 4.6 mph - N/A   Scattered Clouds
7:54 PM 81.0 °F 84.1 °F 69.1 °F 67% 29.93 in 10.0 mi Variable 4.6 mph - N/A   Overcast
8:54 PM 80.1 °F 83.2 °F 70.0 °F 71% 29.93 in 10.0 mi South 12.7 mph 21.9 mph N/A   Partly Cloudy
9:54 PM 79.0 °F - 70.0 °F 74% 29.94 in 10.0 mi SSE 5.8 mph 16.1 mph N/A   Mostly Cloudy
10:54 PM 78.1 °F - 70.0 °F 76% 29.94 in 10.0 mi SE 3.5 mph - N/A   Mostly Cloudy
11:54 PM 77.0 °F - 70.0 °F 79% 29.93 in 10.0 mi Variable 6.9 mph - N/A   Mostly Cloudy